Location: *
(34.8620°S, 39.3380°E)
Time: 10:42:31
(UTC+00:00)

Cosmos 1814 Rocket - Pass Details

Date: 27 July 2021
Orbit: 744 x 788 km, 74.1° (Epoch: 23 September)

Event Time Altitude Azimuth Distance (km) Brightness Sun altitude
Rises 03:38:48 0° 348° (NNW) 3,264 7.3 -8.9°
Reaches altitude 10° 03:41:11 10° 350° (N) 2,346 6.6 -8.5°
Maximum altitude 03:46:31 77° 75° (ENE) 819 4.3 -7.4°
Drops below altitude 10° 03:51:56 10° 160° (SSE) 2,375 6.6 -6.4°
Sets 03:54:20 0° 161° (SSE) 3,308 7.3 -5.9°
